Location: Newark
(44.4156°N, 12.1972°E)
Time: 01:06:35
(UTC+00:00)

STARLINK-1107 - Pass Details

Date: 31 January 2020
Orbit: 345 x 354 km, 53.0° (Epoch: 17 February)

Event Time Altitude Azimuth Distance (km) Brightness Sun altitude
Rises 18:36:27 0° 293° (WNW) 2,179 7.8 -24.8°
Reaches altitude 10° 18:38:46 10° 276° (W) 1,330 6.6 -25.2°
Enters shadow 18:40:23 19° 245° (WSW) 938 5.5 -25.5°
